Theta_e
317 322 325 327 331 336 340 338 333 336 340 337 338 339 346 351 354 364 344 349 352 354 350 349 348 346 345 340 335 339 334 334 334 334 334 334 335 336 336 340 341 340 335 324 319 318 319 320 323
318 321 324 327 333 338 341 338 335 335 340 339 338 338 340 355 352 351 345 350 351 354 351 349 347 346 346 345 340 341 337 335 335 335 334 334 335 336 335 336 335 332 322 319 317 318 318 320 326
317 321 325 329 334 337 341 341 342 338 337 338 338 338 343 351 351 349 344 351 350 353 354 348 346 345 345 346 346 343 342 336 335 336 335 336 335 334 334 334 331 323 320 318 318 317 316 320 325
319 324 324 328 336 337 337 339 342 339 336 337 337 339 342 344 349 347 345 350 349 349 353 347 346 345 345 345 346 346 345 339 336 338 338 336 336 334 333 331 326 322 319 320 318 317 316 316 320
320 323 326 332 334 336 338 338 342 340 336 336 336 339 347 348 348 345 345 348 348 347 354 346 344 344 344 343 345 347 346 342 338 339 341 338 335 334 332 329 325 323 320 320 319 319 318 317 317
322 323 326 332 335 336 336 339 340 340 338 338 336 338 350 348 343 342 344 346 347 347 354 346 343 342 342 343 343 346 347 345 341 341 344 340 336 332 327 323 322 322 321 320 320 320 321 321 321
322 324 325 329 333 335 337 338 340 338 337 339 338 338 349 348 345 343 344 345 347 352 353 348 344 341 341 342 345 347 347 347 344 343 344 340 333 330 326 323 322 320 320 320 320 320 320 320 320
321 323 326 327 330 332 334 337 335 335 336 337 337 339 347 349 347 347 344 343 346 348 354 349 348 348 343 342 344 347 348 348 346 345 344 338 332 327 323 322 321 320 320 320 320 319 320 320 319
320 322 325 327 328 330 333 334 332 332 331 334 336 336 344 345 346 346 346 344 345 346 352 347 348 348 347 348 345 347 347 347 346 345 343 336 331 326 325 322 328 322 320 320 320 320 320 320 319
320 321 322 325 327 328 329 331 329 329 330 330 333 331 334 341 343 345 346 345 344 345 351 347 346 346 342 340 345 345 348 347 346 343 339 333 334 335 336 333 329 333 324 321 320 321 321 322 323
319 321 321 321 324 326 327 329 328 328 329 328 332 332 331 335 339 341 344 345 344 344 347 348 345 343 339 337 340 339 347 346 344 343 342 332 335 337 336 338 336 332 329 323 324 327 332 338 337
319 321 321 321 322 324 325 328 328 327 327 327 328 328 328 329 329 333 338 339 344 344 345 348 346 343 340 338 338 337 342 343 344 342 342 339 337 337 340 343 342 341 337 331 338 341 344 343 343
319 320 321 321 321 322 322 324 327 326 327 326 325 326 325 327 327 326 329 333 337 343 345 347 347 344 341 342 341 338 338 340 341 339 339 342 335 341 342 340 342 343 341 342 341 341 339 342 346
321 320 321 321 321 321 321 321 321 322 322 322 323 323 324 324 326 327 329 330 330 341 344 347 347 348 345 341 348 342 336 340 339 340 341 338 343 339 343 342 341 343 342 343 341 340 338 340 343
320 321 321 321 321 321 321 320 320 321 321 321 322 322 323 325 325 327 326 331 328 336 341 336 349 349 349 345 346 352 346 340 343 343 343 342 343 344 344 344 342 342 341 340 339 338 338 339 340
319 320 320 320 320 321 320 320 321 321 321 321 321 321 322 323 324 325 325 326 328 332 342 345 348 354 351 353 345 351 350 346 346 344 346 346 344 344 347 346 344 343 341 340 338 338 338 336 336
319 318 319 319 320 320 320 319 320 321 322 322 322 322 322 323 326 324 325 325 327 329 331 344 345 349 354 354 355 352 352 351 350 347 346 350 349 345 349 345 346 344 344 342 341 341 339 340 339
319 319 318 319 320 320 320 320 320 321 321 322 321 322 323 323 324 324 324 323 325 329 333 335 350 349 351 357 356 357 356 353 352 352 349 348 353 352 346 352 346 348 345 344 344 343 341 339 337
320 320 320 321 320 321 320 320 320 321 321 321 322 323 324 324 325 323 322 324 324 325 328 331 341 351 352 356 359 357 357 356 354 352 353 350 354 354 352 349 354 348 349 348 345 342 341 340 338
319 319 320 320 321 320 320 320 320 320 321 322 322 324 324 324 324 325 324 323 323 325 327 331 333 341 349 355 354 355 356 354 355 353 351 351 351 354 353 352 352 353 349 347 342 348 346 346 345
319 319 319 320 319 320 319 319 320 320 322 322 322 323 324 325 325 327 327 326 324 323 326 326 329 333 337 345 351 352 352 354 353 353 353 351 351 352 353 353 354 353 347 347 346 350 349 348 349
318 318 317 317 318 319 320 319 323 322 322 322 322 323 323 324 325 325 326 326 323 321 321 324 327 329 331 335 339 344 350 352 351 352 353 353 351 350 352 352 351 351 348 350 351 347 351 350 349
317 317 318 318 318 319 319 319 320 322 321 323 324 323 323 323 323 324 324 324 323 322 322 322 322 327 329 330 333 337 342 344 348 351 349 351 352 351 350 350 349 349 348 350 348 351 352 353 348
317 317 318 319 319 321 320 320 321 321 323 323 324 323 323 322 322 324 324 323 323 323 324 325 326 327 329 329 332 333 337 338 344 346 346 348 344 352 349 347 347 348 349 347 349 348 352 350 348
317 318 319 321 321 321 320 321 323 324 324 323 323 322 323 324 324 324 324 324 324 323 323 324 325 326 326 329 330 332 333 336 339 340 344 344 345 348 352 349 349 348 348 349 346 346 350 348 346
319 320 319 323 324 324 324 327 326 327 325 324 323 325 325 324 324 324 323 323 322 322 323 323 323 324 324 325 329 331 332 334 334 337 339 340 341 344 344 344 341 334 332 341 342 345 348 347 348
320 321 320 322 322 325 325 325 327 326 326 324 323 323 324 325 323 322 322 321 321 322 322 322 322 323 323 325 326 330 329 332 334 334 335 337 340 342 341 344 341 333 329 326 327 343 345 347 347
321 320 323 323 327 329 326 326 326 330 327 325 325 323 324 325 323 322 321 321 320 319 320 320 322 323 323 323 323 325 329 329 333 331 336 337 340 340 341 344 343 338 327 327 336 341 342 345 347
323 322 322 324 325 336 334 329 327 328 329 329 325 324 324 323 322 320 319 318 317 318 318 320 320 321 321 322 323 326 328 328 328 329 329 328 330 336 337 340 342 336 335 333 328 325 324 341 344
325 326 326 333 331 329 331 331 327 326 325 327 325 324 323 321 319 318 318 318 319 319 319 319 318 319 319 319 319 319 324 324 326 327 326 326 327 328 330 336 338 335 333 330 322 319 325 335 339
Wind_Speed
19 19 21 18 7 8 17 20 25 18 8 1 7 6 14 12 9 4 20 28 32 31 30 29 27 24 23 22 21 20 20 20 18 17 16 15 14 14 13 11 10 8 7 7 7 7 7 8 8
16 17 20 10 11 14 15 22 24 20 8 9 2 4 10 18 15 16 13 29 28 30 32 30 28 25 22 20 19 19 19 19 18 17 16 14 13 12 11 10 8 7 6 7 7 6 6 7 6
17 16 10 8 15 17 19 9 18 8 11 7 6 3 7 9 16 11 24 30 28 26 27 29 29 26 22 20 19 19 19 19 18 16 15 14 12 11 11 9 8 6 6 6 6 6 5 5 4
11 13 10 14 21 25 27 16 18 4 1 8 8 7 8 6 3 17 24 27 25 25 24 28 27 25 23 20 19 19 20 19 18 16 14 13 12 11 10 9 8 6 6 5 5 5 4 4 3
21 9 14 17 24 24 23 22 12 7 9 9 7 5 11 10 17 20 22 24 26 25 23 26 26 23 21 20 19 20 21 20 18 16 14 13 12 10 9 8 7 6 6 5 4 4 3 2 2
12 11 15 18 23 24 21 5 6 17 8 7 5 6 13 17 19 18 21 22 24 26 22 25 26 23 20 17 18 21 23 21 18 16 13 12 11 10 10 9 8 6 5 5 4 3 2 2 2
18 15 19 22 21 23 22 4 11 13 14 7 9 4 12 16 20 18 19 19 24 27 23 22 24 23 19 17 16 20 24 22 19 17 14 13 12 10 10 9 8 7 6 5 4 4 4 3 4
15 15 25 22 20 24 16 20 13 10 6 8 6 10 9 12 18 16 18 18 22 22 22 22 22 21 21 19 17 18 22 21 18 17 16 15 14 12 12 11 9 8 7 7 6 6 5 5 6
21 16 17 26 24 20 7 10 14 5 7 5 10 14 10 13 13 15 18 19 22 21 25 23 22 22 20 18 19 20 22 21 19 17 16 16 15 15 14 12 10 9 10 9 9 8 7 7 7
19 17 26 23 22 19 18 14 10 12 9 11 4 11 4 9 13 15 14 14 20 21 24 25 24 24 22 21 21 22 22 23 22 21 21 19 16 14 14 13 15 13 12 11 9 8 8 9 9
23 20 19 25 24 23 16 9 13 16 10 10 13 11 10 8 6 8 17 19 21 22 23 29 27 27 25 23 24 24 20 21 21 19 20 21 16 18 15 20 16 15 13 13 10 9 9 6 5
23 22 23 24 23 19 11 15 13 18 11 12 6 7 5 4 1 6 9 15 22 24 24 32 29 30 27 24 26 26 25 24 23 24 22 19 22 19 19 18 16 14 14 12 15 12 11 7 8
21 21 20 21 25 9 8 15 14 15 10 11 15 9 4 4 4 16 19 16 17 21 24 33 32 31 28 24 26 27 26 27 25 25 26 23 24 21 21 20 19 19 18 15 15 14 10 9 10
15 19 18 18 19 17 13 15 15 19 16 12 16 13 11 11 11 16 16 14 15 5 24 4 32 29 29 31 17 26 28 25 27 26 28 28 24 23 24 23 21 18 18 20 17 16 16 15 13
13 9 13 20 15 17 15 20 22 18 18 18 19 11 17 14 17 13 7 9 19 7 16 23 25 31 31 30 26 16 24 28 29 27 29 33 31 28 27 26 24 25 22 20 18 18 18 20 18
15 14 16 17 19 15 17 20 19 20 19 20 13 14 13 12 15 10 12 14 6 4 11 12 16 26 31 29 34 26 22 26 25 31 29 34 36 33 30 27 31 31 30 32 32 31 28 26 23
13 15 20 19 20 19 21 19 17 19 21 20 14 13 14 13 8 11 14 5 4 7 9 12 21 19 27 30 27 26 25 24 25 28 31 29 36 38 30 34 30 33 31 26 27 23 25 25 25
13 17 18 19 18 15 16 18 15 16 6 7 10 12 15 10 13 16 14 12 8 3 6 12 12 22 19 25 25 21 24 27 26 25 29 31 32 33 39 28 33 26 31 29 28 26 27 25 23
20 18 15 15 18 18 16 15 14 15 13 13 14 13 12 12 9 10 7 8 6 2 3 6 11 8 20 18 21 22 22 24 27 31 26 30 30 35 38 38 28 33 32 32 31 28 27 26 24
20 20 14 16 14 8 9 12 14 15 18 15 15 13 13 12 11 9 8 10 8 8 5 4 8 9 11 17 19 20 23 26 25 28 32 28 31 32 33 32 33 30 27 32 30 27 26 24 25
11 14 13 18 16 15 16 17 16 20 18 17 15 14 14 15 12 9 11 11 14 5 3 7 8 6 10 15 16 21 23 21 23 27 30 35 35 33 34 34 35 35 34 32 37 27 29 22 23
15 16 17 17 15 13 12 14 17 21 20 19 16 13 12 14 8 7 5 5 6 4 11 5 3 4 6 11 17 21 19 22 23 25 25 31 38 39 37 41 39 38 35 34 33 36 30 28 19
16 16 16 16 13 16 19 13 16 16 14 16 17 17 14 11 13 13 12 13 6 5 5 7 11 3 3 8 10 15 18 20 22 25 27 21 34 41 44 43 45 41 42 34 36 34 34 32 28
13 15 15 13 11 14 18 17 17 16 18 18 16 17 12 11 10 6 11 10 5 5 9 9 9 10 7 8 10 14 17 22 21 24 26 24 30 35 46 48 45 39 38 41 36 36 34 34 26
15 13 10 12 13 14 20 16 15 16 19 19 11 10 7 10 9 6 7 5 6 4 4 10 12 14 15 13 13 13 15 18 22 24 23 25 29 28 33 46 43 42 37 30 36 36 31 37 33
13 12 12 16 14 15 14 16 4 12 6 7 7 14 12 8 7 7 6 5 6 5 5 5 8 13 12 18 16 16 18 18 19 20 24 26 27 35 38 26 32 13 29 26 42 43 40 34 29
18 17 16 16 18 16 17 23 12 8 12 11 12 10 9 10 6 2 2 2 3 8 8 8 11 15 10 13 16 12 17 20 20 23 25 25 25 31 37 34 26 34 55 75 70 53 39 32 29
16 9 9 9 17 21 15 18 10 10 5 12 8 1 9 9 7 2 5 8 12 13 10 9 10 15 9 12 11 14 11 16 19 19 21 24 26 30 33 31 23 32 42 45 31 33 23 26 26
13 13 12 12 13 4 6 6 7 9 12 7 2 3 6 2 4 5 8 11 14 19 15 8 7 13 16 14 12 18 10 10 16 17 18 17 18 24 32 31 27 21 22 24 20 21 40 21 24
18 20 17 9 14 12 13 15 12 1 10 12 11 7 5 9 7 8 8 8 14 15 15 11 8 8 13 17 17 20 12 10 12 13 15 19 19 22 28 30 24 20 29 27 17 8 45 10 17
Wind_Direction
288 295 286 259 246 231 252 250 255 270 294 79 26 330 49 61 48 106 139 124 127 137 150 154 158 161 162 160 161 159 159 157 155 151 148 147 144 138 134 129 125 126 123 117 111 106 105 106 111
278 289 280 264 238 241 241 240 246 250 156 57 98 255 280 83 92 120 129 128 134 143 145 156 162 164 166 165 166 166 165 163 161 156 153 153 150 146 141 136 132 131 125 117 110 108 109 108 109
275 268 273 245 238 239 248 305 323 158 90 135 202 256 10 75 126 117 130 128 135 142 145 160 163 166 170 174 173 175 172 169 167 161 158 159 157 157 150 143 141 139 128 119 118 117 111 107 109
258 246 240 258 238 238 250 265 273 328 4 203 234 175 95 56 77 126 139 134 141 147 152 164 166 169 174 177 180 180 180 176 173 168 164 166 166 163 154 148 144 139 131 127 125 122 119 120 119
240 258 241 236 242 251 247 254 320 270 203 191 221 180 111 98 104 131 144 140 146 150 157 167 169 172 175 179 181 184 184 181 179 175 172 171 169 165 158 153 148 148 148 147 142 138 130 131 147
231 229 247 236 241 238 248 334 161 253 277 270 140 216 109 127 126 142 153 147 149 147 153 169 173 175 178 180 178 184 185 184 182 179 177 175 174 172 169 165 162 165 170 164 162 170 178 194 214
232 227 234 249 251 246 228 190 205 252 278 267 245 248 127 151 134 146 154 154 143 142 144 167 171 178 181 183 184 184 185 187 186 185 185 183 183 183 180 177 178 180 185 188 193 205 218 235 255
220 240 242 237 250 258 265 187 245 247 275 47 295 44 121 103 140 145 155 161 150 153 146 160 169 175 180 183 187 185 187 191 193 193 190 190 191 192 191 190 191 195 199 204 210 222 234 246 258
224 233 237 242 235 252 205 236 232 244 333 204 230 83 111 131 143 162 157 167 161 164 148 165 173 178 176 181 186 187 191 197 199 199 200 196 196 198 200 196 201 205 210 213 218 225 236 250 262
224 227 237 241 253 262 269 213 204 264 253 276 247 97 124 166 174 171 166 175 169 167 158 168 178 178 179 180 191 189 192 196 198 201 203 200 191 209 201 203 205 216 218 220 224 236 249 259 270
222 237 234 248 249 254 293 205 185 238 201 237 245 195 170 194 216 236 184 181 179 171 172 167 178 178 183 184 189 189 192 196 204 200 206 200 197 204 193 205 211 219 226 228 224 234 237 238 263
226 223 244 259 247 253 255 285 185 231 216 237 269 309 11 43 304 274 277 282 179 172 179 166 174 179 186 187 187 186 189 193 195 197 204 205 193 206 198 206 213 212 212 216 219 235 236 225 247
227 233 233 239 261 266 272 252 272 279 245 257 278 281 258 258 279 275 260 263 269 178 178 163 168 182 190 198 183 185 191 194 194 199 201 204 204 206 203 206 213 204 205 201 201 219 221 231 232
228 232 236 254 246 257 248 260 252 251 268 264 258 266 248 241 223 230 253 269 293 165 141 219 166 181 190 208 201 191 194 199 195 201 201 206 208 210 204 209 216 212 204 206 203 210 212 223 219
246 232 238 248 244 242 235 240 239 241 240 238 243 244 249 238 235 235 272 252 248 247 176 203 191 188 191 205 220 210 197 201 200 201 204 208 203 207 207 208 209 216 209 210 219 215 214 214 219
243 254 246 238 236 234 231 245 234 227 227 235 222 249 256 233 242 215 232 258 235 307 188 190 187 187 195 197 213 220 215 211 213 207 212 214 208 205 213 207 209 210 213 211 209 212 211 223 217
227 236 233 250 230 211 218 239 248 265 211 219 214 231 245 231 227 245 233 236 230 242 259 221 208 203 203 199 204 219 229 222 221 222 216 216 211 208 209 213 218 215 217 219 215 220 223 218 220
223 218 240 247 232 195 226 231 237 272 172 191 216 244 247 223 240 217 207 230 229 157 232 250 223 209 214 199 200 215 222 234 232 230 231 218 210 204 208 217 223 229 223 221 218 217 223 225 228
259 242 278 225 243 199 217 249 253 241 214 215 226 217 253 244 231 226 216 187 106 91 291 271 256 228 212 202 194 208 224 224 229 232 231 226 221 213 214 225 227 232 219 219 220 219 225 224 228
250 272 270 287 298 276 236 240 249 256 265 227 224 216 219 233 236 228 216 180 178 182 181 220 251 251 231 226 225 226 223 228 231 228 233 230 227 217 214 224 228 227 222 218 221 221 214 218 217
262 274 261 261 272 256 253 256 264 261 246 245 236 232 212 228 220 199 220 214 191 180 207 217 215 205 243 246 246 239 248 256 235 226 225 224 227 227 226 225 225 224 224 220 217 215 212 213 221
240 245 247 267 268 261 236 254 243 230 230 233 235 218 230 230 226 241 218 237 166 232 257 270 225 208 245 250 257 265 246 244 249 250 234 222 222 222 225 223 225 226 226 223 220 222 211 212 217
250 253 259 241 246 266 262 268 271 286 268 223 218 213 209 225 224 213 196 193 144 39 334 270 275 267 243 269 285 289 283 269 259 253 246 251 226 223 218 221 222 224 226 229 218 206 204 207 209
266 253 263 271 263 257 253 256 260 259 249 228 226 197 191 219 211 134 83 69 30 350 355 7 2 335 337 321 289 270 276 280 282 282 290 269 258 231 220 224 223 220 221 226 225 213 203 202 202
226 241 254 246 239 249 244 243 243 251 247 243 174 170 144 95 77 66 71 57 34 22 330 356 4 349 334 319 311 297 287 274 270 277 280 275 274 270 231 224 224 222 213 227 233 224 200 203 199
263 228 241 251 258 267 267 249 302 350 1 110 96 105 106 107 87 62 44 7 338 322 8 297 294 303 321 308 302 309 306 290 283 271 261 264 267 270 274 281 248 217 248 263 257 237 211 199 195
247 263 280 293 297 291 285 281 254 258 225 212 185 161 148 126 115 119 261 311 306 302 307 299 304 283 252 290 289 286 297 292 285 283 285 287 280 271 273 281 242 224 227 239 240 240 214 188 189
264 253 239 261 265 267 265 268 282 26 54 345 343 240 128 140 147 213 332 339 327 305 288 286 327 342 321 285 294 304 295 310 314 321 305 275 275 275 277 280 269 256 240 235 237 250 233 196 184
266 252 250 241 258 254 281 280 21 3 13 9 7 312 83 20 287 339 339 316 301 295 299 280 352 354 334 329 352 343 4 334 327 318 320 318 315 289 280 279 282 255 224 228 266 277 280 214 182
249 265 256 245 253 255 264 271 57 358 311 10 356 292 330 308 310 312 292 305 342 348 346 324 341 337 338 331 328 319 322 320 319 318 332 317 310 314 309 278 268 253 250 240 233 159 270 211 188